Grand Island, NE

4:44 AM CST on February 22, 2017 (GMT -0600)
Central Nebraska Regional

Weather History for KGRI - August, 2013

Change the Weather History Date:

Sunday, August 4, 2013

  Actual Average Record
Temperature  
Mean Temperature 72 °F 76 °F  
Max Temperature 80 °F 87 °F 108 °F (1934)
Min Temperature 64 °F 65 °F 46 °F (1974)
Degree Days  
Heating Degree Days 0 0  
Month to date heating degree days 0 0  
Since 1 June heating degree days 24 26  
Since 1 July heating degree days 3 2  
Cooling Degree Days 7 11  
Month to date cooling degree days 32 44  
Year to date cooling degree days 747 671  
Since 1 June cooling degree days 652 606  
Growing Degree Days 22 (Base 50)    
Moisture  
Dew Point 64 °F    
Average Humidity 81    
Maximum Humidity 93    
Minimum Humidity 69    
Precipitation  
Precipitation 0.00 in 0.11 in 3.10 in (1899)
Month to date precipitation 0.92 0.43  
Year to date precipitation 17.31 18.08  
Snow  
Snow 0.00 in 0.00 in - ()
Month to date snowfall 0.0 0.0  
Since 1 June snowfall 0.0 0.0  
Since 1 July snowfall 0.0 0.0  
Snow Depth 0.00 in    
Sea Level Pressure  
Sea Level Pressure 30.08 in    
Wind  
Wind Speed 8 mph (ESE)    
Max Wind Speed 17 mph    
Max Gust Speed 21 mph    
Visibility 10 miles    
Events      
T = Trace of Precipitation, MM = Missing Value Source: NWS Daily Summary

Daily Weather History Graph

Daily Weather History Graph

Search for Another Location

Airport or City:

Trip Planner

Search our weather history database for the weather conditions in past years. The results will help you decide how hot, cold, wet, or windy it might be!

Date:

Astronomy

Aug. 04, 2013 Rise Set
Actual Time 6:32 AM CDT 8:45 PM CDT
Civil Twilight 6:01 AM CDT 9:15 PM CDT
Nautical Twilight 5:24 AM CDT 9:53 PM CDT
Astronomical Twilight 4:42 AM CDT 10:34 PM CDT
Moon 4:34 AM CDT (8/4) 7:09 PM CDT (8/4)
Length of Visible Light 15h 14m
Length of Day
14h 13m
Waning Crescent, 4% of the Moon is Illuminated
Aug 4
Waning Crescent
Aug 6
New
Aug 14
First Quarter
Aug 20
Full
Aug 28
Last Quarter

Hourly Weather History & Observations

Time (CDT) Temp. Dew Point Humidity Pressure Visibility Wind Dir Wind Speed Gust Speed Precip Events Conditions
12:53 AM 66.0 °F 57.9 °F 75% 30.16 in 10.0 mi East 9.2 mph - N/A   Overcast
1:53 AM 66.0 °F 57.9 °F 75% 30.14 in 10.0 mi East 8.1 mph - N/A   Overcast
2:53 AM 66.0 °F 57.9 °F 75% 30.13 in 10.0 mi East 6.9 mph - N/A   Overcast
3:53 AM 66.0 °F 57.0 °F 73% 30.14 in 10.0 mi ESE 5.8 mph - N/A   Overcast
4:53 AM 66.0 °F 57.0 °F 73% 30.12 in 10.0 mi ESE 9.2 mph - N/A   Overcast
5:53 AM 66.0 °F 57.0 °F 73% 30.12 in 10.0 mi East 8.1 mph - N/A   Overcast
6:45 AM 64.4 °F 57.2 °F 77% 30.16 in 10.0 mi ENE 8.1 mph - N/A   Overcast
6:53 AM 64.0 °F 57.9 °F 80% 30.13 in 10.0 mi ENE 8.1 mph - N/A   Overcast
7:26 AM 64.4 °F 57.2 °F 77% 30.15 in 10.0 mi East 9.2 mph - N/A   Overcast
7:53 AM 64.9 °F 57.0 °F 75% 30.12 in 10.0 mi ESE 8.1 mph - N/A   Overcast
8:53 AM 66.9 °F 57.9 °F 73% 30.12 in 10.0 mi SE 10.4 mph - N/A   Scattered Clouds
9:23 AM 64.4 °F 60.8 °F 88% 30.15 in 10.0 mi SE 13.8 mph 20.7 mph N/A   Mostly Cloudy
9:53 AM 64.9 °F 61.0 °F 87% 30.13 in 10.0 mi SE 10.4 mph - N/A   Overcast
10:01 AM 64.4 °F 60.8 °F 88% 30.14 in 10.0 mi SE 12.7 mph - N/A   Overcast
10:53 AM 66.9 °F 63.0 °F 87% 30.11 in 10.0 mi SE 12.7 mph - N/A   Overcast
11:53 AM 70.0 °F 64.9 °F 84% 30.10 in 10.0 mi ESE 6.9 mph - N/A   Overcast
12:01 PM 69.8 °F 64.4 °F 83% 30.13 in 10.0 mi East 5.8 mph - N/A   Overcast
12:53 PM 72.0 °F 66.0 °F 81% 30.09 in 10.0 mi SSE 9.2 mph - N/A   Overcast
1:44 PM 73.4 °F 66.2 °F 78% 30.10 in 10.0 mi SSE 9.2 mph - N/A   Overcast
1:53 PM 73.0 °F 66.0 °F 79% 30.07 in 10.0 mi SE 9.2 mph - N/A   Overcast
2:53 PM 77.0 °F 66.9 °F 71% 30.05 in 10.0 mi SSE 6.9 mph - N/A   Overcast
3:53 PM 77.0 °F 69.1 °F 76% 30.04 in 10.0 mi ESE 12.7 mph - N/A   Mostly Cloudy
3:55 PM 75.2 °F 68.0 °F 78% 30.07 in 10.0 mi ESE 11.5 mph - N/A   Mostly Cloudy
4:53 PM 78.1 °F 69.1 °F 74% 30.02 in 10.0 mi SE 12.7 mph - N/A   Mostly Cloudy
5:53 PM 78.1 °F 69.1 °F 74% 30.00 in 10.0 mi SE 9.2 mph - N/A   Overcast
6:26 PM 77.0 °F 69.8 °F 78% 30.03 in 10.0 mi SE 9.2 mph - N/A   Overcast
6:40 PM 77.0 °F 69.8 °F 78% 30.03 in 10.0 mi SE 9.2 mph - N/A   Overcast
6:53 PM 77.0 °F 69.1 °F 76% 29.99 in 10.0 mi SE 6.9 mph - N/A   Overcast
7:53 PM 75.9 °F 69.1 °F 79% 29.99 in 10.0 mi SE 6.9 mph - N/A   Overcast
8:53 PM 73.0 °F 69.1 °F 87% 29.99 in 10.0 mi SE 4.6 mph - N/A   Partly Cloudy
9:53 PM 71.1 °F 69.1 °F 93% 30.01 in 10.0 mi SE 4.6 mph - N/A   Partly Cloudy
10:13 PM 71.6 °F 69.8 °F 94% 30.05 in 10.0 mi ESE 3.5 mph - N/A   Mostly Cloudy
10:41 PM 71.6 °F 69.8 °F 94% 30.04 in 10.0 mi SE 6.9 mph - N/A   Scattered Clouds
10:53 PM 72.0 °F 69.1 °F 91% 30.02 in 10.0 mi SE 8.1 mph - N/A   Mostly Cloudy
11:02 PM 71.6 °F 69.8 °F 94% 30.05 in 10.0 mi SE 6.9 mph - N/A   Mostly Cloudy
11:11 PM 71.6 °F 69.8 °F 94% 30.05 in 10.0 mi SE 5.8 mph - N/A   Mostly Cloudy
11:53 PM 72.0 °F 70.0 °F 93% 30.01 in 10.0 mi SE 6.9 mph - N/A   Overcast